Starlink 30271

operational
NORAD ID: 57669 Int'l Des: 2023-124 Owner: SPXS Country: US Constellation: starlink
LEOCIRCULAR

Über Starlink 30271

Beschreibung wird geladen...

Live-Position

3D-Globus wird geladen...

Nächste Überflüge

Höhenverlauf

Altitude vs Time

uPlot chart will show altitude changes over time

Zweizeiliger Elementsatz

1 57669U 23124G 25304.78144800 -.00000763 00000-0 -13637-4 0 9993
2 57669 53.1602 85.8169 0001282 78.4555 281.6590 15.30177883123826
Epoch: 31. Okt. 2025 • Age: 67 hours

Aktueller Status

Höhe 475.1 km
Geschwindigkeit 7.63 km/s
Subsatellitenpunkt 12.45°N, 174.29°W
Startdatum 22. Aug. 2023
Alter 2.2 years
Typ internet

Technische Details

Klassifizierung Payload
Masse 730.00 kg
Trockenmasse 700.00 kg
Gesamtmasse 730.00 kg
Länge 0.30 m
Durchmesser 4.10 m
Spannweite 29.00 m
Form Box + pan
Hersteller SPXS
Bus-Typ Starlink V2M
Phasenstatus In Orbit
Besitzer/Staat SPXS/US

Große Konstellationen

Loading constellations...